This is the latest recevied weather packets stored in our database for station/object N5CNB. If no packets are shown the sender has not sent any weather packets the latest 10 day(s).
| Time | Temp. | Humidity | Pressure | Rain* | Wind** | Luminosity | Snow |
|---|---|---|---|---|---|---|---|
| 1778121913 | 17.78° C | 81% | 1013.4 hPa | 0 mm | - | - | - |
| 1778121016 | 17.78° C | 81% | 1013 hPa | 0 mm | - | - | - |
| 1778120122 | 18.33° C | 81% | 1012.8 hPa | 0 mm | - | - | - |
| 1778119224 | 18.33° C | 81% | 1012.4 hPa | 0 mm | - | - | - |
| 1778118309 | 18.89° C | 80% | 1012 hPa | 0 mm | - | - | - |
| 1778117415 | 18.89° C | 79% | 1011.7 hPa | 0 mm | - | - | - |
| 1778116520 | 19.44° C | 79% | 1011.5 hPa | 0 mm | - | - | - |
| 1778115620 | 20° C | 78% | 1011.4 hPa | 0 mm | - | - | - |
| 1778114724 | 20.56° C | 78% | 1011.2 hPa | 0 mm | - | - | - |
| 1778113812 | 20.56° C | 78% | 1010.9 hPa | 0 mm | - | - | - |
| 1778112922 | 21.11° C | 78% | 1010.7 hPa | 0 mm | - | - | - |
| 1778112026 | 21.11° C | 77% | 1010.9 hPa | 0 mm | - | - | - |
| 1778111121 | 21.67° C | 77% | 1010.7 hPa | 0 mm | - | - | - |
| 1778110225 | 22.22° C | 76% | 1010.5 hPa | 0 mm | - | - | - |
| 1778109314 | 22.22° C | 77% | 1010.3 hPa | 0 mm | - | - | - |
| 1778108418 | 22.22° C | 77% | 1010.2 hPa | 0 mm | - | - | - |
| 1778107521 | 23.33° C | 75% | 1010.1 hPa | 0 mm | - | - | - |
| 1778106621 | 23.89° C | 77% | 1009.8 hPa | 0 mm | - | - | - |
| 1778105725 | 27.22° C | 78% | 1009.4 hPa | 0 mm | - | - | - |
| 1778102124 | 28.89° C | 77% | 1009.2 hPa | 0 mm | - | - | - |
| 1778101228 | 28.89° C | 76% | 1009.3 hPa | 0 mm | - | - | - |
| 1778098522 | 27.22° C | 81% | 1009.8 hPa | 0 mm | - | - | - |
| 1778097625 | 27.22° C | 80% | 1009.8 hPa | 0 mm | - | - | - |
| 1778096726 | 28.33° C | 77% | 1009.9 hPa | 0 mm | - | - | - |
| 1778095815 | 27.22° C | 81% | 1009.9 hPa | 0 mm | - | - | - |
* Rain latest hour (hover to see other rain measurements)
** Current wind speed in m/s (hover to see current wind gust speed)